LPA727 UGTB-VIDP

Flight info

Callsign LPA727
Flight time 4h 18m
Altitude 37000
Route DISKA1E DISKA M737 VERCA M747 BODKA B375 GIRUN G792 MSD B411 PAMTU P628 BURTA/N0451F390 P628 RK G202 MERUN G452 LKA LKA7A
Aircraft A320/M-SDE3FGHIRWY/LB1

Departure

Time 2026-04-26 17:47
Airport Tbilisi International Airport (UGTB)

Arrival

Time 2026-04-26 22:06
Airport Indira Gandhi International Airport (VIDP)
Time Latitude Longitude Altitude Speed Heading
2026-04-26 17:17 41.66813 44.96133 1526 ft 0 kts 223°
2026-04-26 17:28 41.66818 44.96140 1526 ft 2 kts 221°
2026-04-26 17:28 41.66830 44.96155 1518 ft 2 kts 224°
2026-04-26 17:28 41.66842 44.96170 1520 ft 2 kts 226°
2026-04-26 17:28 41.66853 44.96187 1521 ft 2 kts 230°
2026-04-26 17:29 41.66863 44.96204 1518 ft 2 kts 244°
2026-04-26 17:29 41.66868 44.96218 1518 ft 2 kts 282°
2026-04-26 17:29 41.66862 44.96234 1521 ft 0 kts 313°
2026-04-26 17:32 41.66863 44.96233 1521 ft 1 kts 312°
2026-04-26 17:32 41.66888 44.96195 1520 ft 9 kts 312°
2026-04-26 17:32 41.66925 44.96133 1526 ft 8 kts 311°
2026-04-26 17:32 41.66957 44.96088 1524 ft 6 kts 314°
2026-04-26 17:33 41.66986 44.96046 1526 ft 8 kts 312°
2026-04-26 17:33 41.67041 44.95967 1523 ft 15 kts 313°
2026-04-26 17:33 41.67099 44.95854 1525 ft 16 kts 312°
2026-04-26 17:34 41.67293 44.95585 1526 ft 22 kts 314°
2026-04-26 17:34 41.67398 44.95435 1524 ft 22 kts 312°
2026-04-26 17:34 41.67500 44.95277 1525 ft 23 kts 311°
2026-04-26 17:34 41.67598 44.95133 1524 ft 20 kts 314°
2026-04-26 17:35 41.67662 44.95037 1526 ft 9 kts 297°
2026-04-26 17:35 41.67654 44.94955 1522 ft 12 kts 252°
2026-04-26 17:35 41.67621 44.94804 1526 ft 20 kts 253°
2026-04-26 17:35 41.67583 44.94645 1520 ft 13 kts 252°
2026-04-26 17:36 41.67577 44.94622 1526 ft 0 kts 252°
2026-04-26 17:38 41.67577 44.94619 1526 ft 1 kts 251°
2026-04-26 17:38 41.67563 44.94569 1526 ft 8 kts 251°
2026-04-26 17:38 41.67548 44.94502 1524 ft 7 kts 252°
2026-04-26 17:39 41.67546 44.94497 1524 ft 0 kts 252°
2026-04-26 17:43 41.67544 44.94488 1522 ft 6 kts 252°
2026-04-26 17:43 41.67515 44.94413 1525 ft 9 kts 213°
2026-04-26 17:43 41.67465 44.94422 1525 ft 7 kts 145°
2026-04-26 17:44 41.67450 44.94441 1522 ft 0 kts 136°
2026-04-26 17:46 41.67282 44.94654 1525 ft 74 kts 136°
2026-04-26 17:46 41.66720 44.95359 1525 ft 145 kts 136°
2026-04-26 17:47 41.65848 44.96457 1584 ft 192 kts 135°
2026-04-26 17:47 41.65516 44.96870 1703 ft 195 kts 136°
2026-04-26 17:47 41.63894 44.98896 2817 ft 189 kts 136°
2026-04-26 17:47 41.62941 45.00097 3395 ft 191 kts 137°
2026-04-26 17:48 41.61918 45.01381 3616 ft 213 kts 137°
2026-04-26 17:48 41.61178 45.02310 3735 ft 229 kts 137°
2026-04-26 17:48 41.59957 45.03844 4001 ft 253 kts 137°
2026-04-26 17:48 41.58190 45.06070 4748 ft 269 kts 137°
2026-04-26 17:49 41.57273 45.07227 5294 ft 270 kts 137°
2026-04-26 17:49 41.55951 45.09041 6049 ft 276 kts 127°
2026-04-26 17:49 41.54902 45.11211 6767 ft 281 kts 123°
2026-04-26 17:49 41.53856 45.13439 7486 ft 285 kts 123°
2026-04-26 17:50 41.52795 45.15703 8204 ft 289 kts 124°
2026-04-26 17:50 41.51719 45.17995 8935 ft 293 kts 124°
2026-04-26 17:50 41.50625 45.20311 9656 ft 297 kts 124°
2026-04-26 17:50 41.49508 45.22669 10267 ft 306 kts 124°
2026-04-26 17:51 41.48326 45.25158 10442 ft 329 kts 124°
2026-04-26 17:51 41.47064 45.27816 10668 ft 348 kts 124°
2026-04-26 17:51 41.45602 45.30405 11229 ft 352 kts 135°
2026-04-26 17:51 41.43928 45.32814 11883 ft 355 kts 135°
2026-04-26 17:52 41.42239 45.35236 12552 ft 358 kts 135°
2026-04-26 17:52 41.40530 45.37677 13204 ft 362 kts 135°
2026-04-26 17:52 41.38808 45.40133 13859 ft 365 kts 135°
2026-04-26 17:52 41.37090 45.42583 14431 ft 368 kts 135°
2026-04-26 17:53 41.35338 45.45084 15007 ft 371 kts 135°
2026-04-26 17:53 41.33571 45.47606 15574 ft 374 kts 135°
2026-04-26 17:53 41.31792 45.50146 16142 ft 376 kts 135°
2026-04-26 17:54 41.28190 45.55280 17255 ft 383 kts 136°
2026-04-26 17:54 41.26364 45.57872 17787 ft 386 kts 136°
2026-04-26 17:54 41.24517 45.60489 18328 ft 389 kts 136°
2026-04-26 17:54 41.22684 45.63149 18807 ft 393 kts 132°
2026-04-26 17:55 41.21139 45.66178 19293 ft 400 kts 121°
2026-04-26 17:55 41.20021 45.69591 19782 ft 405 kts 111°
2026-04-26 17:55 41.19098 45.73137 20286 ft 407 kts 112°
2026-04-26 17:55 41.18160 45.76707 20779 ft 410 kts 112°
2026-04-26 17:56 41.17215 45.80287 21251 ft 413 kts 112°
2026-04-26 17:56 41.15293 45.87519 22167 ft 418 kts 112°
2026-04-26 17:57 41.13350 45.94861 23058 ft 424 kts 112°
2026-04-26 17:57 41.12372 45.98562 23488 ft 427 kts 112°
2026-04-26 17:57 41.11385 46.02282 23872 ft 429 kts 113°
2026-04-26 17:57 41.10392 46.06016 24228 ft 431 kts 113°
2026-04-26 17:58 41.07362 46.17323 25271 ft 436 kts 113°
2026-04-26 17:59 41.05334 46.24872 25922 ft 439 kts 113°
2026-04-26 17:59 41.04303 46.28699 26246 ft 441 kts 113°
2026-04-26 17:59 41.03273 46.32534 26576 ft 443 kts 113°
2026-04-26 17:59 41.02242 46.36392 26898 ft 445 kts 113°
2026-04-26 18:00 41.01211 46.40259 27198 ft 447 kts 113°
2026-04-26 18:00 41.00174 46.44145 27502 ft 449 kts 113°
2026-04-26 18:00 40.99131 46.48048 27789 ft 450 kts 113°
2026-04-26 18:00 40.98084 46.51967 28069 ft 452 kts 113°
2026-04-26 18:01 40.97031 46.55902 28343 ft 454 kts 113°
2026-04-26 18:01 40.95969 46.59852 28618 ft 456 kts 113°
2026-04-26 18:01 40.94903 46.63803 28883 ft 458 kts 113°
2026-04-26 18:01 40.93826 46.67783 29072 ft 461 kts 113°
2026-04-26 18:02 40.92739 46.71788 29216 ft 465 kts 113°
2026-04-26 18:02 40.92014 46.74452 29308 ft 467 kts 113°
2026-04-26 18:02 40.90531 46.79896 29493 ft 471 kts 113°
2026-04-26 18:02 40.89420 46.83977 29620 ft 474 kts 113°
2026-04-26 18:03 40.88301 46.88087 29767 ft 476 kts 113°
2026-04-26 18:03 40.87176 46.92211 29901 ft 478 kts 113°
2026-04-26 18:03 40.86046 46.96341 30041 ft 479 kts 113°
2026-04-26 18:03 40.84910 47.00480 30170 ft 480 kts 113°
2026-04-26 18:04 40.83769 47.04619 30287 ft 480 kts 113°
2026-04-26 18:04 40.82623 47.08768 30405 ft 481 kts 113°
2026-04-26 18:04 40.81479 47.12914 30526 ft 481 kts 113°
2026-04-26 18:05 40.79179 47.21207 30761 ft 481 kts 113°
2026-04-26 18:05 40.78023 47.25352 30887 ft 481 kts 114°
2026-04-26 18:05 40.76864 47.29493 30999 ft 481 kts 114°
2026-04-26 18:05 40.75714 47.33585 31135 ft 481 kts 114°
2026-04-26 18:06 40.74550 47.37722 31246 ft 481 kts 114°
2026-04-26 18:06 40.73383 47.41861 31365 ft 481 kts 114°
2026-04-26 18:06 40.72218 47.45999 31517 ft 481 kts 114°
2026-04-26 18:06 40.71057 47.50131 31631 ft 481 kts 114°
2026-04-26 18:07 40.69897 47.54267 31738 ft 481 kts 114°
2026-04-26 18:07 40.68740 47.58389 31864 ft 481 kts 114°
2026-04-26 18:07 40.67575 47.62527 31982 ft 481 kts 114°
2026-04-26 18:08 40.65239 47.70776 32242 ft 480 kts 114°
2026-04-26 18:08 40.64067 47.74893 32371 ft 480 kts 114°
2026-04-26 18:08 40.62893 47.79013 32497 ft 480 kts 114°
2026-04-26 18:08 40.61723 47.83124 32630 ft 479 kts 114°
2026-04-26 18:09 40.60552 47.87232 32751 ft 479 kts 114°
2026-04-26 18:09 40.59378 47.91337 32892 ft 479 kts 114°
2026-04-26 18:09 40.58206 47.95443 33027 ft 479 kts 113°
2026-04-26 18:09 40.57094 47.99582 33155 ft 479 kts 112°
2026-04-26 18:10 40.56055 48.03747 33291 ft 480 kts 111°
2026-04-26 18:10 40.55059 48.07933 33426 ft 480 kts 110°
2026-04-26 18:10 40.54079 48.12119 33560 ft 479 kts 110°
2026-04-26 18:10 40.53094 48.16299 33693 ft 479 kts 110°
2026-04-26 18:11 40.52090 48.20482 33832 ft 478 kts 111°
2026-04-26 18:11 40.51073 48.24637 33966 ft 478 kts 111°
2026-04-26 18:11 40.50045 48.28782 34090 ft 477 kts 111°
2026-04-26 18:11 40.49012 48.32924 34215 ft 477 kts 111°
2026-04-26 18:12 40.47980 48.37060 34329 ft 476 kts 111°
2026-04-26 18:12 40.46947 48.41198 34444 ft 476 kts 111°
2026-04-26 18:12 40.45919 48.45327 34565 ft 476 kts 111°
2026-04-26 18:12 40.44893 48.49450 34684 ft 476 kts 111°
2026-04-26 18:13 40.43865 48.53578 34804 ft 475 kts 111°
2026-04-26 18:13 40.42839 48.57702 34918 ft 475 kts 111°
2026-04-26 18:13 40.41811 48.61814 35192 ft 470 kts 112°
2026-04-26 18:13 40.41140 48.64490 35488 ft 466 kts 112°
2026-04-26 18:14 40.39782 48.69876 35839 ft 463 kts 112°
2026-04-26 18:14 40.38773 48.73881 36020 ft 462 kts 112°
2026-04-26 18:14 40.37765 48.77882 36190 ft 462 kts 112°
2026-04-26 18:14 40.36756 48.81883 36337 ft 462 kts 112°
2026-04-26 18:15 40.35744 48.85884 36467 ft 462 kts 112°
2026-04-26 18:15 40.34744 48.89829 36594 ft 462 kts 112°
2026-04-26 18:15 40.33729 48.93820 36724 ft 461 kts 112°
2026-04-26 18:15 40.32713 48.97811 36850 ft 461 kts 112°
2026-04-26 18:16 40.31699 49.01792 37012 ft 460 kts 112°
2026-04-26 18:16 40.28627 49.13758 37066 ft 462 kts 112°
2026-04-26 18:17 40.26545 49.21753 37065 ft 466 kts 112°
2026-04-26 18:17 40.24445 49.29833 37063 ft 470 kts 112°
2026-04-26 18:18 40.22338 49.37978 37063 ft 474 kts 112°
2026-04-26 18:18 40.20217 49.46165 37065 ft 476 kts 112°
2026-04-26 18:19 40.18079 49.54393 37064 ft 478 kts 112°
2026-04-26 18:19 40.15925 49.62638 37069 ft 480 kts 113°
2026-04-26 18:20 40.13752 49.70901 37060 ft 481 kts 113°
2026-04-26 18:20 40.12304 49.76391 37062 ft 482 kts 113°
2026-04-26 18:21 40.09395 49.87433 37061 ft 483 kts 113°
2026-04-26 18:21 40.07197 49.95729 37068 ft 484 kts 113°
2026-04-26 18:22 40.04984 50.04027 37076 ft 484 kts 113°
2026-04-26 18:22 40.02771 50.12327 37081 ft 484 kts 113°
2026-04-26 18:23 40.00550 50.20629 37087 ft 485 kts 113°
2026-04-26 18:23 39.98319 50.28935 37088 ft 485 kts 113°
2026-04-26 18:24 39.96083 50.37231 37091 ft 485 kts 113°
2026-04-26 18:24 39.93861 50.45477 37096 ft 485 kts 113°
2026-04-26 18:25 39.91612 50.53770 37098 ft 486 kts 113°
2026-04-26 18:25 39.89347 50.62070 37099 ft 486 kts 114°
2026-04-26 18:26 39.87082 50.70358 37098 ft 486 kts 114°
2026-04-26 18:26 39.84813 50.78651 37095 ft 486 kts 114°
2026-04-26 18:27 39.82538 50.86951 37095 ft 486 kts 114°
2026-04-26 18:27 39.80272 50.95184 37096 ft 487 kts 114°
2026-04-26 18:28 39.77973 51.03470 37096 ft 487 kts 114°
2026-04-26 18:28 39.75676 51.11742 37096 ft 487 kts 114°
2026-04-26 18:29 39.73368 51.20026 37098 ft 487 kts 114°
2026-04-26 18:29 39.71059 51.28316 37098 ft 488 kts 114°
2026-04-26 18:30 39.68743 51.36588 37101 ft 488 kts 114°
2026-04-26 18:30 39.66413 51.44870 37100 ft 488 kts 114°
2026-04-26 18:31 39.64055 51.53121 37095 ft 487 kts 115°
2026-04-26 18:31 39.61560 51.61233 37100 ft 487 kts 116°
2026-04-26 18:32 39.59401 51.68033 37099 ft 487 kts 116°
2026-04-26 18:32 39.56836 51.76150 37099 ft 487 kts 116°
2026-04-26 18:33 39.53885 51.85615 37098 ft 487 kts 116°
2026-04-26 18:33 39.51767 51.92437 37101 ft 487 kts 116°
2026-04-26 18:34 39.49216 52.00566 37101 ft 487 kts 116°
2026-04-26 18:34 39.46662 52.08635 37097 ft 487 kts 116°
2026-04-26 18:35 39.44093 52.16750 37093 ft 487 kts 116°
2026-04-26 18:35 39.41524 52.24868 37094 ft 487 kts 116°
2026-04-26 18:36 39.38952 52.32980 37096 ft 487 kts 116°
2026-04-26 18:36 39.36374 52.41085 37097 ft 487 kts 116°
2026-04-26 18:37 39.33787 52.49187 37095 ft 487 kts 116°
2026-04-26 18:37 39.31187 52.57268 37095 ft 487 kts 116°
2026-04-26 18:38 39.28581 52.65355 37104 ft 487 kts 116°
2026-04-26 18:38 39.26096 52.73508 37102 ft 488 kts 114°
2026-04-26 18:39 39.23708 52.81651 37103 ft 488 kts 114°
2026-04-26 18:39 39.21282 52.89820 37095 ft 488 kts 115°
2026-04-26 18:40 39.18808 52.97961 37097 ft 487 kts 115°
2026-04-26 18:40 39.16327 53.06098 37088 ft 488 kts 115°
2026-04-26 18:41 39.13844 53.14235 37097 ft 488 kts 115°
2026-04-26 18:41 39.11357 53.22362 37089 ft 488 kts 115°
2026-04-26 18:42 39.08863 53.30487 37091 ft 488 kts 115°
2026-04-26 18:42 39.06367 53.38617 37086 ft 488 kts 115°
2026-04-26 18:43 39.03883 53.46687 37086 ft 488 kts 115°
2026-04-26 18:43 39.01368 53.54797 37085 ft 488 kts 115°
2026-04-26 18:44 38.98847 53.62908 37080 ft 489 kts 115°
2026-04-26 18:44 38.96330 53.71034 37082 ft 489 kts 115°
2026-04-26 18:45 38.93811 53.79158 37078 ft 489 kts 115°
2026-04-26 18:45 38.91283 53.87277 37079 ft 489 kts 115°
2026-04-26 18:46 38.88744 53.95388 37075 ft 490 kts 115°
2026-04-26 18:46 38.86199 54.03499 37070 ft 490 kts 115°
2026-04-26 18:47 38.83647 54.11609 37073 ft 490 kts 115°
2026-04-26 18:47 38.81098 54.19725 37068 ft 490 kts 115°
2026-04-26 18:48 38.78564 54.27767 37067 ft 490 kts 115°
2026-04-26 18:48 38.75992 54.35868 37063 ft 490 kts 115°
2026-04-26 18:49 38.73417 54.43952 37062 ft 490 kts 115°
2026-04-26 18:49 38.70845 54.52029 37061 ft 490 kts 115°
2026-04-26 18:50 38.68261 54.60110 37058 ft 490 kts 115°
2026-04-26 18:50 38.65674 54.68174 37062 ft 490 kts 115°
2026-04-26 18:51 38.63100 54.76187 37054 ft 490 kts 115°
2026-04-26 18:51 38.60502 54.84262 37049 ft 491 kts 116°
2026-04-26 18:52 38.57889 54.92325 37050 ft 491 kts 116°
2026-04-26 18:52 38.55268 55.00393 37052 ft 491 kts 116°
2026-04-26 18:53 38.52648 55.08459 37055 ft 492 kts 116°
2026-04-26 18:53 38.50021 55.16540 37050 ft 492 kts 116°
2026-04-26 18:54 38.47403 55.24553 37045 ft 492 kts 116°
2026-04-26 18:54 38.44758 55.32612 37048 ft 492 kts 116°
2026-04-26 18:55 38.42092 55.40682 37050 ft 493 kts 116°
2026-04-26 18:55 38.39437 55.48737 37050 ft 493 kts 116°
2026-04-26 18:56 38.36764 55.56778 37050 ft 492 kts 116°
2026-04-26 18:56 38.34043 55.64791 37040 ft 493 kts 117°
2026-04-26 18:57 38.31767 55.71438 37018 ft 493 kts 117°
2026-04-26 18:57 38.28560 55.80801 37024 ft 493 kts 117°
2026-04-26 18:58 38.25840 55.88764 37027 ft 493 kts 117°
2026-04-26 18:58 38.23102 55.96766 37023 ft 493 kts 117°
2026-04-26 18:59 38.20357 56.04764 37027 ft 493 kts 117°
2026-04-26 18:59 38.17597 56.12745 37028 ft 493 kts 117°
2026-04-26 19:00 38.14837 56.20730 37012 ft 493 kts 117°
2026-04-26 19:00 38.12071 56.28707 37025 ft 493 kts 117°
2026-04-26 19:01 38.08826 56.36228 37030 ft 485 kts 131°
2026-04-26 19:01 38.04696 56.43010 37023 ft 485 kts 131°
2026-04-26 19:02 38.00564 56.49776 37049 ft 485 kts 131°
2026-04-26 19:02 37.97126 56.55401 37056 ft 486 kts 131°
2026-04-26 19:03 37.92273 56.63323 37060 ft 487 kts 132°
2026-04-26 19:03 37.88112 56.70107 37055 ft 488 kts 132°
2026-04-26 19:04 37.83940 56.76883 37041 ft 488 kts 132°
2026-04-26 19:04 37.79749 56.83657 37030 ft 489 kts 132°
2026-04-26 19:05 37.73493 56.93788 37031 ft 489 kts 131°
2026-04-26 19:06 37.69303 57.00565 37051 ft 489 kts 132°
2026-04-26 19:06 37.65103 57.07326 37069 ft 489 kts 132°
2026-04-26 19:07 37.60908 57.14075 37074 ft 489 kts 132°
2026-04-26 19:07 37.56706 57.20823 37090 ft 489 kts 132°
2026-04-26 19:08 37.52494 57.27554 37094 ft 489 kts 132°
2026-04-26 19:08 37.48325 57.34317 37090 ft 490 kts 129°
2026-04-26 19:09 37.44494 57.41421 37088 ft 492 kts 126°
2026-04-26 19:09 37.40831 57.48701 37075 ft 492 kts 126°
2026-04-26 19:10 37.37114 57.55923 37062 ft 492 kts 127°
2026-04-26 19:10 37.33316 57.63073 37053 ft 492 kts 127°
2026-04-26 19:11 37.29498 57.70202 37046 ft 492 kts 127°
2026-04-26 19:11 37.25709 57.77304 37049 ft 492 kts 127°
2026-04-26 19:12 37.21907 57.84443 37050 ft 492 kts 127°
2026-04-26 19:12 37.18099 57.91583 37055 ft 493 kts 127°
2026-04-26 19:13 37.14267 57.98735 37061 ft 494 kts 128°
2026-04-26 19:13 37.10428 58.05898 37063 ft 495 kts 127°
2026-04-26 19:14 37.06602 58.13060 37071 ft 494 kts 127°
2026-04-26 19:14 37.02771 58.20217 37080 ft 495 kts 128°
2026-04-26 19:15 36.98922 58.27376 37088 ft 496 kts 128°
2026-04-26 19:15 36.95094 58.34476 37095 ft 495 kts 128°
2026-04-26 19:16 36.91241 58.41622 37103 ft 496 kts 128°
2026-04-26 19:16 36.87383 58.48758 37110 ft 496 kts 128°
2026-04-26 19:17 36.83514 58.55887 37116 ft 496 kts 128°
2026-04-26 19:17 36.79642 58.63011 37119 ft 496 kts 128°
2026-04-26 19:18 36.75762 58.70123 37123 ft 496 kts 128°
2026-04-26 19:18 36.72530 58.76026 37129 ft 496 kts 128°
2026-04-26 19:19 36.68641 58.83117 37129 ft 496 kts 128°
2026-04-26 19:19 36.64742 58.90212 37140 ft 496 kts 129°
2026-04-26 19:20 36.60844 58.97296 37148 ft 497 kts 129°
2026-04-26 19:20 36.56922 59.04404 37165 ft 498 kts 129°
2026-04-26 19:21 36.53003 59.11488 37155 ft 497 kts 129°
2026-04-26 19:21 36.49075 59.18568 37158 ft 497 kts 129°
2026-04-26 19:22 36.45144 59.25649 37158 ft 498 kts 129°
2026-04-26 19:22 36.41207 59.32739 37159 ft 498 kts 129°
2026-04-26 19:23 36.37283 59.39768 37157 ft 498 kts 129°
2026-04-26 19:23 36.33325 59.46834 37161 ft 499 kts 129°
2026-04-26 19:24 36.29367 59.53912 37159 ft 499 kts 129°
2026-04-26 19:24 36.23409 59.64518 37160 ft 499 kts 132°
2026-04-26 19:25 36.19697 59.69941 37163 ft 495 kts 136°
2026-04-26 19:25 36.14399 59.77451 37168 ft 496 kts 136°
2026-04-26 19:26 36.09858 59.83882 37156 ft 496 kts 136°
2026-04-26 19:26 36.05344 59.90274 37157 ft 497 kts 136°
2026-04-26 19:27 36.00786 59.96699 37158 ft 497 kts 136°
2026-04-26 19:27 35.96222 60.03112 37159 ft 497 kts 136°
2026-04-26 19:28 35.91657 60.09528 37156 ft 497 kts 136°
2026-04-26 19:28 35.87093 60.15943 37161 ft 498 kts 136°
2026-04-26 19:29 35.82529 60.22358 37158 ft 497 kts 136°
2026-04-26 19:29 35.77977 60.28726 37154 ft 498 kts 137°
2026-04-26 19:30 35.73393 60.35121 37152 ft 498 kts 137°
2026-04-26 19:30 35.69544 60.40480 37152 ft 498 kts 137°
2026-04-26 19:31 35.64198 60.47910 37152 ft 499 kts 137°
2026-04-26 19:31 35.59595 60.54300 37149 ft 499 kts 137°
2026-04-26 19:32 35.54985 60.60680 37146 ft 499 kts 137°
2026-04-26 19:32 35.50387 60.67070 37140 ft 500 kts 137°
2026-04-26 19:33 35.45785 60.73486 37140 ft 500 kts 137°
2026-04-26 19:33 35.41184 60.79890 37137 ft 500 kts 137°
2026-04-26 19:34 35.36608 60.86236 37137 ft 500 kts 137°
2026-04-26 19:34 35.31986 60.92632 37137 ft 500 kts 137°
2026-04-26 19:35 35.27361 60.99011 37135 ft 500 kts 137°
2026-04-26 19:35 35.22745 61.05375 37136 ft 500 kts 137°
2026-04-26 19:36 35.18899 61.10654 37129 ft 500 kts 137°
2026-04-26 19:36 35.13211 61.17663 37124 ft 495 kts 143°
2026-04-26 19:37 35.08222 61.23407 37123 ft 495 kts 143°
2026-04-26 19:37 35.03212 61.29174 37119 ft 495 kts 143°
2026-04-26 19:38 34.98188 61.34931 37115 ft 495 kts 143°
2026-04-26 19:38 34.93155 61.40685 37106 ft 496 kts 143°
2026-04-26 19:39 34.88126 61.46438 37100 ft 496 kts 143°
2026-04-26 19:39 34.83094 61.52176 37095 ft 496 kts 143°
2026-04-26 19:40 34.78054 61.57910 37094 ft 496 kts 143°
2026-04-26 19:40 34.73009 61.63641 37095 ft 496 kts 143°
2026-04-26 19:41 34.67969 61.69358 37089 ft 496 kts 143°
2026-04-26 19:41 34.63770 61.74110 37086 ft 496 kts 143°
2026-04-26 19:42 34.57901 61.80741 37081 ft 496 kts 143°
2026-04-26 19:42 34.52852 61.86449 37083 ft 496 kts 143°
2026-04-26 19:43 34.47801 61.92143 37076 ft 496 kts 143°
2026-04-26 19:43 34.42737 61.97831 37067 ft 496 kts 143°
2026-04-26 19:44 34.37680 62.03513 37058 ft 496 kts 143°
2026-04-26 19:44 34.32614 62.09201 37053 ft 496 kts 143°
2026-04-26 19:45 34.27546 62.14866 37053 ft 496 kts 143°
2026-04-26 19:45 34.22477 62.20523 37048 ft 496 kts 143°
2026-04-26 19:46 34.17824 62.26764 37043 ft 502 kts 135°
2026-04-26 19:46 34.13347 62.33227 37039 ft 502 kts 135°
2026-04-26 19:47 34.09618 62.38587 37035 ft 502 kts 135°
2026-04-26 19:47 34.04369 62.46120 37036 ft 502 kts 135°
2026-04-26 19:48 33.99875 62.52560 37034 ft 502 kts 135°
2026-04-26 19:48 33.95376 62.58999 37032 ft 502 kts 135°
2026-04-26 19:49 33.90874 62.65427 37035 ft 502 kts 135°
2026-04-26 19:49 33.86400 62.71811 37032 ft 502 kts 135°
2026-04-26 19:50 33.81891 62.78232 37030 ft 502 kts 135°
2026-04-26 19:50 33.77374 62.84645 37027 ft 503 kts 135°
2026-04-26 19:51 33.72850 62.91057 37028 ft 503 kts 135°
2026-04-26 19:51 33.68317 62.97473 37031 ft 503 kts 135°
2026-04-26 19:52 33.63775 63.03886 37025 ft 503 kts 135°
2026-04-26 19:52 33.59242 63.10297 37021 ft 504 kts 135°
2026-04-26 19:53 33.54697 63.16710 37009 ft 504 kts 135°
2026-04-26 19:53 33.50179 63.23063 36997 ft 504 kts 135°
2026-04-26 19:54 33.45617 63.29453 36996 ft 505 kts 135°
2026-04-26 19:54 33.41039 63.35853 36992 ft 505 kts 135°
2026-04-26 19:55 33.36470 63.42256 36987 ft 506 kts 135°
2026-04-26 19:55 33.31893 63.48654 36982 ft 506 kts 135°
2026-04-26 19:56 33.27328 63.54994 36988 ft 506 kts 135°
2026-04-26 19:56 33.22735 63.61373 36997 ft 506 kts 135°
2026-04-26 19:57 33.18146 63.67757 37001 ft 506 kts 135°
2026-04-26 19:57 33.13565 63.74122 36997 ft 501 kts 135°
2026-04-26 19:58 33.09082 63.80338 36994 ft 490 kts 136°
2026-04-26 19:58 33.04635 63.86464 37002 ft 493 kts 136°
2026-04-26 19:59 33.00128 63.92675 37004 ft 497 kts 136°
2026-04-26 19:59 32.95591 63.98927 37002 ft 500 kts 136°
2026-04-26 20:00 32.91028 64.05192 37004 ft 502 kts 136°
2026-04-26 20:00 32.86440 64.11474 37001 ft 503 kts 136°
2026-04-26 20:01 32.81841 64.17780 36999 ft 504 kts 135°
2026-04-26 20:01 32.77270 64.24041 36977 ft 504 kts 135°
2026-04-26 20:02 32.72667 64.30328 36959 ft 504 kts 136°
2026-04-26 20:02 32.69585 64.34529 36954 ft 504 kts 135°
2026-04-26 20:03 32.63435 64.42880 36945 ft 504 kts 136°
2026-04-26 20:03 32.58793 64.49089 36939 ft 503 kts 137°
2026-04-26 20:04 32.54053 64.55224 36933 ft 503 kts 137°
2026-04-26 20:04 32.49335 64.61277 36928 ft 504 kts 137°
2026-04-26 20:05 32.44601 64.67391 36920 ft 504 kts 137°
2026-04-26 20:05 32.39868 64.73536 36919 ft 505 kts 137°
2026-04-26 20:06 32.35128 64.79662 36912 ft 505 kts 137°
2026-04-26 20:06 32.30379 64.85789 36905 ft 505 kts 137°
2026-04-26 20:07 32.26424 64.90881 36904 ft 506 kts 137°
2026-04-26 20:07 32.21660 64.97001 36904 ft 506 kts 137°
2026-04-26 20:08 32.16894 65.03120 36904 ft 506 kts 137°
2026-04-26 20:08 32.12119 65.09239 36906 ft 507 kts 137°
2026-04-26 20:09 32.07337 65.15352 36904 ft 507 kts 137°
2026-04-26 20:09 32.02547 65.21469 36905 ft 508 kts 137°
2026-04-26 20:10 31.97748 65.27584 36910 ft 508 kts 137°
2026-04-26 20:10 31.92981 65.33647 36916 ft 508 kts 137°
2026-04-26 20:11 31.88177 65.39761 36914 ft 508 kts 137°
2026-04-26 20:12 31.80963 65.48907 36914 ft 508 kts 137°
2026-04-26 20:12 31.76154 65.54990 36913 ft 508 kts 137°
2026-04-26 20:13 31.71353 65.61052 36910 ft 507 kts 137°
2026-04-26 20:13 31.66575 65.67077 36907 ft 507 kts 137°
2026-04-26 20:14 31.61766 65.73140 36902 ft 507 kts 137°
2026-04-26 20:14 31.56964 65.79179 36903 ft 506 kts 137°
2026-04-26 20:15 31.52151 65.85212 36903 ft 506 kts 137°
2026-04-26 20:15 31.47453 65.91365 36898 ft 510 kts 130°
2026-04-26 20:16 31.43213 65.98028 36905 ft 510 kts 130°
2026-04-26 20:16 31.38965 66.04675 36902 ft 510 kts 130°
2026-04-26 20:17 31.34737 66.11266 36905 ft 510 kts 131°
2026-04-26 20:17 31.30476 66.17902 36909 ft 510 kts 130°
2026-04-26 20:18 31.26219 66.24527 36910 ft 510 kts 131°
2026-04-26 20:18 31.21960 66.31144 36911 ft 510 kts 131°
2026-04-26 20:19 31.17693 66.37763 36899 ft 509 kts 131°
2026-04-26 20:19 31.13440 66.44354 36902 ft 509 kts 131°
2026-04-26 20:20 31.09130 66.50900 36911 ft 508 kts 132°
2026-04-26 20:20 31.04689 66.57309 36916 ft 507 kts 133°
2026-04-26 20:21 31.00251 66.63615 36927 ft 507 kts 133°
2026-04-26 20:21 30.95800 66.69994 36935 ft 507 kts 133°
2026-04-26 20:22 30.91373 66.76396 36944 ft 507 kts 133°
2026-04-26 20:22 30.86939 66.82784 36944 ft 507 kts 133°
2026-04-26 20:23 30.82504 66.89153 36947 ft 507 kts 133°
2026-04-26 20:23 30.78063 66.95525 36944 ft 507 kts 133°
2026-04-26 20:24 30.73626 67.01889 36939 ft 507 kts 133°
2026-04-26 20:24 30.69177 67.08245 36948 ft 507 kts 133°
2026-04-26 20:25 30.64724 67.14591 36951 ft 507 kts 133°
2026-04-26 20:25 30.60279 67.20929 36946 ft 507 kts 133°
2026-04-26 20:26 30.55831 67.27259 36945 ft 507 kts 133°
2026-04-26 20:26 30.51359 67.33599 36967 ft 507 kts 133°
2026-04-26 20:27 30.46894 67.39926 36944 ft 507 kts 133°
2026-04-26 20:27 30.42429 67.46243 36940 ft 507 kts 133°
2026-04-26 20:28 30.37951 67.52578 36937 ft 508 kts 133°
2026-04-26 20:28 30.33506 67.58862 36922 ft 509 kts 133°
2026-04-26 20:29 30.29010 67.65212 36904 ft 509 kts 133°
2026-04-26 20:29 30.24506 67.71545 36886 ft 510 kts 133°
2026-04-26 20:30 30.19992 67.77869 36861 ft 510 kts 133°
2026-04-26 20:30 30.15478 67.84207 36840 ft 511 kts 133°
2026-04-26 20:31 30.10959 67.90542 36821 ft 510 kts 133°
2026-04-26 20:31 30.06434 67.96860 36808 ft 510 kts 133°
2026-04-26 20:32 30.01913 68.03172 36803 ft 510 kts 133°
2026-04-26 20:32 29.97391 68.09480 36791 ft 511 kts 133°
2026-04-26 20:33 29.92854 68.15777 36785 ft 511 kts 133°
2026-04-26 20:33 29.88312 68.22077 36781 ft 511 kts 133°
2026-04-26 20:34 29.83777 68.28381 36779 ft 511 kts 133°
2026-04-26 20:34 29.79236 68.34678 36777 ft 511 kts 133°
2026-04-26 20:35 29.74690 68.40965 36773 ft 511 kts 133°
2026-04-26 20:35 29.70131 68.47248 36771 ft 511 kts 133°
2026-04-26 20:36 29.65612 68.53477 36771 ft 511 kts 133°
2026-04-26 20:36 29.61058 68.59751 36776 ft 511 kts 133°
2026-04-26 20:37 29.56491 68.66014 36779 ft 511 kts 133°
2026-04-26 20:37 29.51930 68.72273 36769 ft 510 kts 133°
2026-04-26 20:38 29.47379 68.78514 36764 ft 510 kts 133°
2026-04-26 20:38 29.42826 68.84748 36759 ft 509 kts 133°
2026-04-26 20:39 29.38273 68.90960 36761 ft 509 kts 134°
2026-04-26 20:39 29.33718 68.97166 36760 ft 509 kts 134°
2026-04-26 20:40 29.29154 69.03372 36760 ft 509 kts 134°
2026-04-26 20:40 29.24588 69.09578 36768 ft 509 kts 133°
2026-04-26 20:41 29.20016 69.15783 36765 ft 509 kts 133°
2026-04-26 20:41 29.15476 69.21939 36761 ft 509 kts 133°
2026-04-26 20:42 29.10911 69.28119 36763 ft 508 kts 133°
2026-04-26 20:42 29.06340 69.34296 36756 ft 508 kts 134°
2026-04-26 20:43 29.01780 69.40450 36743 ft 507 kts 134°
2026-04-26 20:43 28.97215 69.46603 36734 ft 507 kts 134°
2026-04-26 20:44 28.92651 69.52738 36721 ft 506 kts 134°
2026-04-26 20:44 28.88121 69.58821 36711 ft 506 kts 134°
2026-04-26 20:45 28.83558 69.64945 36697 ft 506 kts 134°
2026-04-26 20:45 28.78993 69.71061 36688 ft 506 kts 134°
2026-04-26 20:46 28.74421 69.77169 36678 ft 506 kts 134°
2026-04-26 20:46 28.69844 69.83272 36676 ft 506 kts 134°
2026-04-26 20:47 28.65275 69.89356 36672 ft 506 kts 134°
2026-04-26 20:47 28.60703 69.95448 36674 ft 505 kts 134°
2026-04-26 20:48 28.56136 70.01523 36673 ft 505 kts 134°
2026-04-26 20:48 28.51568 70.07592 36677 ft 504 kts 134°
2026-04-26 20:49 28.47002 70.13646 36672 ft 504 kts 134°
2026-04-26 20:49 28.42432 70.19686 36674 ft 504 kts 134°
2026-04-26 20:50 28.38670 70.26353 36668 ft 510 kts 113°
2026-04-26 20:50 28.37630 70.30202 36664 ft 512 kts 102°
2026-04-26 20:50 28.37217 70.34218 36660 ft 512 kts 91°
2026-04-26 20:51 28.37630 70.42292 36656 ft 513 kts 85°
2026-04-26 20:51 28.38137 70.50372 36652 ft 513 kts 85°
2026-04-26 20:52 28.38641 70.58468 36655 ft 514 kts 85°
2026-04-26 20:52 28.39152 70.66559 36656 ft 514 kts 85°
2026-04-26 20:53 28.39650 70.74662 36659 ft 514 kts 85°
2026-04-26 20:53 28.40145 70.82766 36663 ft 514 kts 85°
2026-04-26 20:54 28.40640 70.90871 36666 ft 514 kts 86°
2026-04-26 20:54 28.41129 70.98968 36668 ft 514 kts 86°
2026-04-26 20:55 28.41600 71.07077 36670 ft 514 kts 86°
2026-04-26 20:55 28.42078 71.15128 36674 ft 514 kts 86°
2026-04-26 20:56 28.42553 71.23234 36673 ft 514 kts 86°
2026-04-26 20:56 28.43019 71.31335 36673 ft 514 kts 86°
2026-04-26 20:57 28.43476 71.39433 36674 ft 514 kts 86°
2026-04-26 20:57 28.43939 71.47534 36677 ft 513 kts 86°
2026-04-26 20:58 28.44319 71.54264 36675 ft 513 kts 86°
2026-04-26 20:58 28.44770 71.62364 36674 ft 513 kts 86°
2026-04-26 20:59 28.45216 71.70456 36677 ft 513 kts 86°
2026-04-26 20:59 28.45649 71.78544 36677 ft 513 kts 87°
2026-04-26 21:00 28.46082 71.86626 36676 ft 512 kts 87°
2026-04-26 21:00 28.46510 71.94656 36675 ft 512 kts 87°
2026-04-26 21:01 28.46940 72.02735 36676 ft 512 kts 87°
2026-04-26 21:01 28.47355 72.10813 36679 ft 512 kts 87°
2026-04-26 21:02 28.47765 72.18894 36678 ft 512 kts 87°
2026-04-26 21:02 28.47744 72.26943 36676 ft 510 kts 99°
2026-04-26 21:03 28.46555 72.34943 36671 ft 509 kts 101°
2026-04-26 21:03 28.45360 72.42820 36673 ft 509 kts 101°
2026-04-26 21:04 28.44152 72.50759 36673 ft 510 kts 101°
2026-04-26 21:04 28.42948 72.58684 36674 ft 510 kts 101°
2026-04-26 21:05 28.41753 72.66622 36677 ft 510 kts 101°
2026-04-26 21:05 28.40542 72.74556 36677 ft 510 kts 101°
2026-04-26 21:06 28.39323 72.82488 36675 ft 509 kts 101°
2026-04-26 21:06 28.38101 72.90407 36677 ft 509 kts 101°
2026-04-26 21:07 28.36884 72.98287 36677 ft 509 kts 101°
2026-04-26 21:07 28.35657 73.06198 36680 ft 509 kts 101°
2026-04-26 21:08 28.34427 73.14111 36681 ft 509 kts 101°
2026-04-26 21:08 28.33185 73.22032 36684 ft 509 kts 101°
2026-04-26 21:09 28.31942 73.29936 36686 ft 509 kts 101°
2026-04-26 21:09 28.30692 73.37837 36685 ft 508 kts 101°
2026-04-26 21:10 28.29444 73.45734 36693 ft 508 kts 101°
2026-04-26 21:10 28.28213 73.53580 36689 ft 508 kts 101°
2026-04-26 21:11 28.26954 73.61465 36692 ft 508 kts 101°
2026-04-26 21:11 28.25685 73.69344 36692 ft 508 kts 101°
2026-04-26 21:12 28.24410 73.77223 36696 ft 507 kts 101°
2026-04-26 21:12 28.23135 73.85077 36698 ft 507 kts 101°
2026-04-26 21:13 28.21862 73.92964 36697 ft 507 kts 101°
2026-04-26 21:13 28.20584 74.00836 36698 ft 508 kts 101°
2026-04-26 21:14 28.19307 74.08707 36698 ft 508 kts 99°
2026-04-26 21:14 28.19055 74.16630 36694 ft 507 kts 88°
2026-04-26 21:15 28.19270 74.24637 36693 ft 508 kts 88°
2026-04-26 21:15 28.19466 74.32636 36697 ft 508 kts 88°
2026-04-26 21:16 28.19657 74.40648 36699 ft 508 kts 88°
2026-04-26 21:16 28.19853 74.48651 36703 ft 508 kts 88°
2026-04-26 21:17 28.20045 74.56645 36703 ft 508 kts 88°
2026-04-26 21:17 28.20227 74.64664 36709 ft 508 kts 88°
2026-04-26 21:18 28.20412 74.72670 36708 ft 508 kts 88°
2026-04-26 21:18 28.20599 74.80679 36709 ft 508 kts 88°
2026-04-26 21:19 28.20771 74.88676 36708 ft 508 kts 88°
2026-04-26 21:19 28.20933 74.96664 36710 ft 508 kts 88°
2026-04-26 21:20 28.21096 75.04681 36712 ft 508 kts 88°
2026-04-26 21:20 28.21253 75.12690 36713 ft 508 kts 88°
2026-04-26 21:21 28.21401 75.20684 36713 ft 508 kts 88°
2026-04-26 21:21 28.21547 75.28693 36737 ft 508 kts 88°
2026-04-26 21:22 28.21688 75.36693 36779 ft 508 kts 88°
2026-04-26 21:22 28.21827 75.44715 36730 ft 508 kts 88°
2026-04-26 21:23 28.21958 75.52663 36438 ft 504 kts 88°
2026-04-26 21:23 28.22021 75.56674 35574 ft 502 kts 88°
2026-04-26 21:23 28.22080 75.60577 34696 ft 502 kts 88°
2026-04-26 21:23 28.22139 75.64529 33969 ft 499 kts 88°
2026-04-26 21:24 28.22199 75.68451 33225 ft 496 kts 88°
2026-04-26 21:24 28.22261 75.72346 32524 ft 492 kts 88°
2026-04-26 21:24 28.22322 75.76215 31866 ft 488 kts 88°
2026-04-26 21:24 28.22381 75.80043 31236 ft 484 kts 88°
2026-04-26 21:25 28.22436 75.83844 30627 ft 481 kts 88°
2026-04-26 21:25 28.22489 75.87648 29566 ft 487 kts 88°
2026-04-26 21:25 28.22543 75.91510 28863 ft 493 kts 88°
2026-04-26 21:25 28.22598 75.95453 28270 ft 503 kts 88°
2026-04-26 21:26 28.22653 75.99439 27684 ft 507 kts 88°
2026-04-26 21:26 28.22705 76.03441 27080 ft 509 kts 88°
2026-04-26 21:26 28.22753 76.07466 26501 ft 511 kts 89°
2026-04-26 21:26 28.22802 76.11481 25916 ft 509 kts 88°
2026-04-26 21:27 28.22851 76.15515 25327 ft 513 kts 89°
2026-04-26 21:27 28.22900 76.19562 24709 ft 513 kts 89°
2026-04-26 21:27 28.22946 76.23616 24090 ft 514 kts 89°
2026-04-26 21:27 28.23039 76.27652 23250 ft 511 kts 84°
2026-04-26 21:28 28.23758 76.31569 21933 ft 507 kts 69°
2026-04-26 21:28 28.24962 76.35305 21343 ft 500 kts 68°
2026-04-26 21:28 28.26182 76.39120 20693 ft 495 kts 68°
2026-04-26 21:28 28.27298 76.42671 20069 ft 491 kts 68°
2026-04-26 21:29 28.28428 76.46304 19453 ft 486 kts 68°
2026-04-26 21:29 28.29546 76.49912 18832 ft 482 kts 68°
2026-04-26 21:29 28.30658 76.53485 18228 ft 477 kts 68°
2026-04-26 21:29 28.31758 76.57015 17586 ft 473 kts 68°
2026-04-26 21:30 28.32852 76.60526 17209 ft 470 kts 68°
2026-04-26 21:30 28.33944 76.64026 17101 ft 470 kts 68°
2026-04-26 21:30 28.35094 76.67494 16888 ft 468 kts 65°
2026-04-26 21:30 28.35926 76.69747 16362 ft 466 kts 64°
2026-04-26 21:31 28.37704 76.74196 15460 ft 459 kts 62°
2026-04-26 21:31 28.39087 76.77475 14800 ft 460 kts 62°
2026-04-26 21:31 28.40475 76.80739 14146 ft 458 kts 62°
2026-04-26 21:31 28.41845 76.83997 13503 ft 456 kts 62°
2026-04-26 21:32 28.42863 76.87405 12963 ft 458 kts 77°
2026-04-26 21:32 28.43084 76.91009 12610 ft 459 kts 92°
2026-04-26 21:32 28.42839 76.94593 12362 ft 447 kts 94°
2026-04-26 21:32 28.42581 76.97993 12041 ft 414 kts 94°
2026-04-26 21:33 28.42330 77.01132 11702 ft 388 kts 94°
2026-04-26 21:33 28.42086 77.04157 10741 ft 383 kts 94°
2026-04-26 21:33 28.41845 77.07162 9803 ft 379 kts 94°
2026-04-26 21:33 28.41610 77.10126 8826 ft 375 kts 94°
2026-04-26 21:34 28.41376 77.13049 7868 ft 369 kts 95°
2026-04-26 21:34 28.41146 77.15919 7003 ft 361 kts 95°
2026-04-26 21:34 28.40924 77.18704 6404 ft 345 kts 95°
2026-04-26 21:34 28.40715 77.21306 6153 ft 321 kts 95°
2026-04-26 21:35 28.40522 77.23748 6081 ft 293 kts 95°
2026-04-26 21:35 28.40423 77.25962 5961 ft 268 kts 82°
2026-04-26 21:35 28.41074 77.27795 5848 ft 244 kts 46°
2026-04-26 21:35 28.42422 77.28842 5502 ft 230 kts 12°
2026-04-26 21:36 28.43954 77.29232 5160 ft 221 kts
2026-04-26 21:36 28.44947 77.29467 4958 ft 216 kts
2026-04-26 21:36 28.46854 77.29916 4567 ft 206 kts
2026-04-26 21:36 28.48233 77.30214 4476 ft 194 kts
2026-04-26 21:37 28.49473 77.29888 4268 ft 179 kts 326°
2026-04-26 21:37 28.50226 77.28855 3994 ft 173 kts 289°
2026-04-26 21:37 28.50498 77.27522 3665 ft 170 kts 288°
2026-04-26 21:37 28.50802 77.26254 3428 ft 163 kts 288°
2026-04-26 21:38 28.51079 77.25033 3248 ft 154 kts 287°
2026-04-26 21:38 28.51334 77.23878 3046 ft 148 kts 288°
2026-04-26 21:38 28.51577 77.22765 2851 ft 145 kts 288°
2026-04-26 21:38 28.51820 77.21649 2675 ft 144 kts 288°
2026-04-26 21:39 28.52060 77.20540 2502 ft 145 kts 288°
2026-04-26 21:39 28.52225 77.19778 2605 ft 151 kts 288°
2026-04-26 21:39 28.52538 77.18316 3388 ft 133 kts 287°
2026-04-26 21:39 28.52771 77.17245 3604 ft 149 kts 287°
2026-04-26 21:40 28.53036 77.16023 3745 ft 171 kts 286°
2026-04-26 21:40 28.53234 77.15105 3786 ft 191 kts 286°
2026-04-26 21:40 28.53693 77.12972 4024 ft 226 kts 285°
2026-04-26 21:40 28.53952 77.11762 4248 ft 242 kts 285°
2026-04-26 21:41 28.54373 77.09802 4636 ft 264 kts 284°
2026-04-26 21:41 28.54808 77.07766 5356 ft 270 kts 284°
2026-04-26 21:41 28.55271 77.05680 6249 ft 271 kts 284°
2026-04-26 21:41 28.55752 77.03587 6748 ft 272 kts 284°
2026-04-26 21:42 28.56223 77.01543 6935 ft 270 kts 284°
2026-04-26 21:42 28.56698 76.99475 6993 ft 269 kts 284°
2026-04-26 21:42 28.57170 76.97410 7000 ft 268 kts 284°
2026-04-26 21:42 28.57642 76.95351 7002 ft 268 kts 284°
2026-04-26 21:43 28.58098 76.93317 7004 ft 268 kts 281°
2026-04-26 21:43 28.58067 76.91208 7003 ft 269 kts 255°
2026-04-26 21:43 28.57152 76.89344 7004 ft 275 kts 229°
2026-04-26 21:43 28.55711 76.87896 7004 ft 278 kts 222°
2026-04-26 21:44 28.54195 76.86527 7001 ft 278 kts 221°
2026-04-26 21:44 28.52665 76.85160 7004 ft 286 kts 221°
2026-04-26 21:44 28.51078 76.83711 6997 ft 291 kts 224°
2026-04-26 21:44 28.49623 76.82199 7000 ft 279 kts 226°
2026-04-26 21:45 28.48211 76.80694 7000 ft 277 kts 226°
2026-04-26 21:45 28.46810 76.79195 7002 ft 276 kts 226°
2026-04-26 21:45 28.45404 76.77692 7001 ft 276 kts 226°
2026-04-26 21:45 28.43998 76.76198 7001 ft 277 kts 226°
2026-04-26 21:46 28.42581 76.74720 7000 ft 277 kts 225°
2026-04-26 21:46 28.41170 76.73261 7001 ft 277 kts 225°
2026-04-26 21:46 28.39737 76.71785 7002 ft 277 kts 225°
2026-04-26 21:46 28.38310 76.70316 6999 ft 277 kts 225°
2026-04-26 21:47 28.36881 76.68844 6694 ft 274 kts 225°
2026-04-26 21:47 28.35486 76.67405 6288 ft 273 kts 225°
2026-04-26 21:47 28.34095 76.65942 5880 ft 272 kts 229°
2026-04-26 21:47 28.32960 76.64245 5413 ft 270 kts 236°
2026-04-26 21:48 28.31848 76.62512 4954 ft 272 kts 234°
2026-04-26 21:48 28.30446 76.61091 4512 ft 274 kts 208°
2026-04-26 21:48 28.28617 76.60530 4057 ft 276 kts 184°
2026-04-26 21:48 28.26694 76.60565 3577 ft 277 kts 176°
2026-04-26 21:49 28.24762 76.60733 3125 ft 278 kts 175°
2026-04-26 21:49 28.22837 76.60902 2703 ft 277 kts 175°
2026-04-26 21:49 28.20919 76.61065 2587 ft 277 kts 175°
2026-04-26 21:49 28.18995 76.61229 2601 ft 278 kts 175°
2026-04-26 21:50 28.17061 76.61395 2603 ft 278 kts 175°
2026-04-26 21:50 28.15156 76.61604 2602 ft 278 kts 168°
2026-04-26 21:50 28.13381 76.62425 2600 ft 270 kts 144°
2026-04-26 21:50 28.12117 76.63858 2600 ft 247 kts 121°
2026-04-26 21:51 28.11461 76.65565 2597 ft 227 kts 100°
2026-04-26 21:51 28.11361 76.67299 2605 ft 213 kts 81°
2026-04-26 21:51 28.11728 76.68865 2602 ft 201 kts 63°
2026-04-26 21:51 28.12452 76.70190 2605 ft 196 kts 52°
2026-04-26 21:52 28.13204 76.71382 2636 ft 179 kts 52°
2026-04-26 21:52 28.13889 76.72484 2593 ft 162 kts 52°
2026-04-26 21:52 28.14512 76.73485 2587 ft 150 kts 52°
2026-04-26 21:52 28.15107 76.74441 2593 ft 146 kts 52°
2026-04-26 21:53 28.15693 76.75379 2597 ft 145 kts 52°
2026-04-26 21:53 28.16275 76.76310 2596 ft 145 kts 52°
2026-04-26 21:53 28.16889 76.77295 2664 ft 166 kts 52°
2026-04-26 21:53 28.17618 76.78461 2576 ft 188 kts 52°
2026-04-26 21:54 28.18386 76.79693 2589 ft 194 kts 53°
2026-04-26 21:54 28.19199 76.81000 2589 ft 212 kts 53°
2026-04-26 21:54 28.20058 76.82383 2600 ft 215 kts 53°
2026-04-26 21:54 28.20973 76.83851 2606 ft 248 kts 53°
2026-04-26 21:55 28.22009 76.85510 2601 ft 262 kts 53°
2026-04-26 21:55 28.23069 76.87217 2598 ft 264 kts 53°
2026-04-26 21:55 28.24128 76.88927 2597 ft 265 kts 53°
2026-04-26 21:55 28.25187 76.90639 2595 ft 264 kts 53°
2026-04-26 21:56 28.26231 76.92326 2578 ft 265 kts 53°
2026-04-26 21:56 28.27290 76.94038 2492 ft 263 kts 53°
2026-04-26 21:56 28.28347 76.95743 2500 ft 264 kts 53°
2026-04-26 21:56 28.29398 76.97440 2496 ft 255 kts 53°
2026-04-26 21:57 28.30368 76.99013 2495 ft 236 kts 53°
2026-04-26 21:57 28.31308 77.00537 2502 ft 248 kts 53°
2026-04-26 21:57 28.32339 77.02198 2498 ft 261 kts 53°
2026-04-26 21:57 28.33393 77.03896 2497 ft 263 kts 53°
2026-04-26 21:58 28.34435 77.05579 2498 ft 263 kts 53°
2026-04-26 21:58 28.35499 77.07300 2498 ft 263 kts 53°
2026-04-26 21:58 28.36536 77.08981 2498 ft 263 kts 53°
2026-04-26 21:58 28.37586 77.10683 2501 ft 263 kts 53°
2026-04-26 21:59 28.38638 77.12387 2502 ft 263 kts 53°
2026-04-26 21:59 28.39667 77.14054 2499 ft 248 kts 53°
2026-04-26 21:59 28.40615 77.15596 2573 ft 226 kts 53°
2026-04-26 21:59 28.41482 77.17006 2595 ft 217 kts 53°
2026-04-26 22:00 28.42329 77.18380 2596 ft 204 kts 53°
2026-04-26 22:00 28.43130 77.19677 2594 ft 197 kts 52°
2026-04-26 22:00 28.43907 77.20936 2622 ft 188 kts 52°
2026-04-26 22:00 28.44692 77.21992 2606 ft 166 kts 39°
2026-04-26 22:01 28.45573 77.22706 2589 ft 148 kts 26°
2026-04-26 22:01 28.46499 77.23145 2586 ft 141 kts 15°
2026-04-26 22:01 28.47457 77.23345 2594 ft 139 kts
2026-04-26 22:01 28.48407 77.23316 2600 ft 138 kts 353°
2026-04-26 22:02 28.49342 77.23064 2604 ft 139 kts 342°
2026-04-26 22:02 28.49939 77.22774 2629 ft 138 kts 335°
2026-04-26 22:02 28.50977 77.21949 2609 ft 138 kts 320°
2026-04-26 22:02 28.51615 77.21122 2607 ft 139 kts 308°
2026-04-26 22:03 28.52063 77.20154 2564 ft 143 kts 291°
2026-04-26 22:03 28.52340 77.19070 2306 ft 142 kts 289°
2026-04-26 22:03 28.52595 77.17979 2096 ft 142 kts 289°
2026-04-26 22:03 28.52838 77.16892 1913 ft 142 kts 288°
2026-04-26 22:04 28.53078 77.15803 1729 ft 142 kts 287°
2026-04-26 22:04 28.53314 77.14726 1557 ft 142 kts 285°
2026-04-26 22:04 28.53551 77.13641 1352 ft 140 kts 284°
2026-04-26 22:04 28.53780 77.12569 1185 ft 139 kts 283°
2026-04-26 22:05 28.54010 77.11504 1007 ft 138 kts 283°
2026-04-26 22:05 28.54240 77.10450 826 ft 137 kts 283°
2026-04-26 22:05 28.54445 77.09468 774 ft 111 kts 283°
2026-04-26 22:05 28.54586 77.08802 774 ft 62 kts 283°
2026-04-26 22:06 28.54658 77.08489 773 ft 26 kts 296°
2026-04-26 22:06 28.54749 77.08395 773 ft 15 kts 318°